Hourly Data Report for July 21, 2021

RANKIN INLET A
NUNAVUT
Current Station Operator: NAVCAN

62°48'38.000" N
92°06'53.000" W
32.30 m
2303405
71083
YRT

Download Data

Hourly Data (July 2021)
Hourly Data Report for July 21, 2021
TIME
LST
Temp Definition
°C
Dew Point Definition
°C
Rel Hum Definition
%
Precip. Amount Definition
mm

Wind Dir Definition
10's deg

Wind Spd Definition
km/h
Visibility Definition
km
Stn Press Definition
kPa
Hmdx Definition


Wind Chill Definition


Weather Definition


00:00 13.1 9.2 77   33 18 24.1 101.02     Mostly Cloudy
01:00 12.7 9.5 81   33 22 24.1 101.05     LegendNANA
02:00 12.4 9.5 83   34 22 24.1 101.08     LegendNANA
03:00 11.7 9.3 85   35 20 24.1 101.12     Mostly Cloudy
04:00 10.5 6.8 78   36 28 24.1 101.18     LegendNANA
05:00 10.2 5.4 72   36 28 24.1 101.23     LegendNANA
06:00 10.7 4.7 66   36 30 24.1 101.26     Mainly Clear
07:00 11.4 4.3 61   1 28 24.1 101.32     LegendNANA
08:00 12.4 4.5 58   36 32 24.1 101.35     LegendNANA
09:00 12.6 5.3 61   36 24 24.1 101.37     Mostly Cloudy
10:00 13.9 6.0 59   33 29 24.1 101.38     LegendNANA
11:00 14.5 7.0 60   34 21 24.1 101.39     LegendNANA
12:00 15.5 6.8 56   33 22 24.1 101.39     Mostly Cloudy
13:00 15.8 8.1 60   32 23 24.1 101.38     LegendNANA
14:00 17.4 8.7 56   34 23 24.1 101.35     LegendNANA
15:00 18.0 8.7 54   33 18 24.1 101.36     Mostly Cloudy
16:00 18.0 9.0 55   31 20 24.1 101.37     LegendNANA
17:00 17.9 10.0 59   32 18 24.1 101.39     LegendNANA
18:00 17.6 9.6 59   33 17 24.1 101.38     Mostly Cloudy
19:00 17.4 9.9 61   33 13 24.1 101.38     LegendNANA
20:00 17.3 10.0 62   31 5 24.1 101.38     LegendNANA
21:00 15.3 9.3 68   17 8 24.1 101.38     Mostly Cloudy
22:00 14.9 9.6 71   21 8 24.1 101.40     LegendNANA
23:00 13.9 10.1 77   20 13 24.1 101.40     LegendNANA

Notes on Data Quality.

Legend

  • E = Estimated
  • M = Missing
  • NA = Not Available*
  • [empty] = Indicates an unobserved value
Date modified: